When you browse on this site, cookies collect data to enhance your experience and personalize the content and advertising you see.
Visit our Privacy Policy to learn more. By continuing to use the site, you agree to this use of cookies and data.
  • In France
  • List of Countries
  • For 7 days
  • Water Temperature
  • Satellite Maps
  • Weather Map
  • Weather Widgets
  • user-avatar
    Login

    Hourly Weather Yulara

    Today, 16 February, Saturday

    Time Temperature Precipitation Wind Pressure Humidity
    00:00 +28°C° 0 mm 5 mps 719 mmHg 13%
    01:00 +27°C° 0 mm 5 mps 719 mmHg 13%
    02:00 +26°C° 0 mm 4 mps 718 mmHg 14%
    03:00 +25°C° 0 mm 4 mps 719 mmHg 15%
    04:00 +25°C° 0 mm 3 mps 719 mmHg 15%
    05:00 +24°C° 0 mm 3 mps 719 mmHg 16%
    06:00 +22°C° 0 mm 3 mps 719 mmHg 16%
    07:00 +26°C° 0 mm 3 mps 719 mmHg 14%
    08:00 +28°C° 0 mm 4 mps 719 mmHg 12%
    09:00 +30°C° 0 mm 4 mps 720 mmHg 11%
    10:00 +33°C° 0 mm 4 mps 719 mmHg 10%
    11:00 +35°C° 0 mm 4 mps 719 mmHg 9%
    12:00 +36°C° 0 mm 4 mps 719 mmHg 8%
    13:00 +37°C° 0 mm 3 mps 718 mmHg 8%
    14:00 +38°C° 0 mm 3 mps 718 mmHg 8%
    15:00 +39°C° 0 mm 3 mps 717 mmHg 8%
    16:00 +40°C° 0 mm 4 mps 717 mmHg 8%
    17:00 +40°C° 0 mm 4 mps 717 mmHg 8%
    18:00 +40°C° 0 mm 4 mps 716 mmHg 8%
    19:00 +37°C° 0 mm 4 mps 716 mmHg 9%
    20:00 +35°C° 0 mm 4 mps 717 mmHg 10%
    21:00 +33°C° 0 mm 4 mps 717 mmHg 12%
    22:00 +32°C° 0 mm 4 mps 717 mmHg 12%
    23:00 +30°C° 0 mm 4 mps 717 mmHg 12%

    Tomorrow, 17 February, Sunday

    Time Temperature Precipitation Wind Pressure Humidity
    00:00 +29°C° 0 mm 4 mps 717 mmHg 13%
    01:00 +28°C° 0 mm 3 mps 716 mmHg 13%
    02:00 +28°C° 0 mm 3 mps 716 mmHg 14%
    03:00 +27°C° 0 mm 3 mps 716 mmHg 15%
    04:00 +26°C° 0 mm 3 mps 716 mmHg 15%
    05:00 +26°C° 0 mm 3 mps 716 mmHg 16%
    06:00 +25°C° 0 mm 3 mps 716 mmHg 16%
    07:00 +28°C° 0 mm 3 mps 716 mmHg 14%
    08:00 +32°C° 0 mm 4 mps 717 mmHg 11%
    09:00 +34°C° 0 mm 4 mps 717 mmHg 9%
    10:00 +36°C° 0 mm 3 mps 717 mmHg 8%
    11:00 +38°C° 0 mm 3 mps 716 mmHg 8%
    12:00 +39°C° 0 mm 2 mps 716 mmHg 8%
    13:00 +40°C° 0 mm 3 mps 715 mmHg 8%
    14:00 +42°C° 0 mm 3 mps 715 mmHg 7%
    15:00 +43°C° 0 mm 4 mps 714 mmHg 7%
    16:00 +43°C° 0 mm 4 mps 714 mmHg 7%
    17:00 +42°C° 0 mm 4 mps 714 mmHg 8%
    18:00 +42°C° 0 mm 5 mps 714 mmHg 8%
    19:00 +40°C° 0 mm 4 mps 714 mmHg 9%
    20:00 +37°C° 0 mm 4 mps 714 mmHg 10%
    21:00 +36°C° 0 mm 3 mps 714 mmHg 11%
    22:00 +35°C° 0 mm 3 mps 714 mmHg 12%
    23:00 +34°C° 0 mm 3 mps 714 mmHg 12%

    Day after tomorrow, 18 February, Monday

    Time Temperature Precipitation Wind Pressure Humidity
    00:00 +33°C° 0 mm 3 mps 714 mmHg 13%
    01:00 +31°C° 0 mm 2 mps 713 mmHg 13%
    02:00 +30°C° 0 mm 2 mps 713 mmHg 14%
    03:00 +29°C° 0 mm 1 mps 713 mmHg 14%
    04:00 +28°C° 0 mm 3 mps 714 mmHg 19%
    05:00 +28°C° 0 mm 4 mps 714 mmHg 24%
    06:00 +27°C° 0 mm 5 mps 714 mmHg 28%
    07:00 +29°C° 0 mm 5 mps 715 mmHg 28%
    08:00 +32°C° 0 mm 5 mps 716 mmHg 27%
    09:00 +34°C° 0 mm 6 mps 716 mmHg 27%
    10:00 +36°C° 0 mm 4 mps 716 mmHg 22%
    11:00 +38°C° 0 mm 3 mps 716 mmHg 16%
    12:00 +40°C° 0 mm 1 mps 715 mmHg 11%
    13:00 +41°C° 0 mm 1 mps 715 mmHg 10%
    14:00 +42°C° 0 mm 1 mps 714 mmHg 9%
    15:00 +43°C° 0 mm 2 mps 714 mmHg 9%
    16:00 +43°C° 0 mm 2 mps 714 mmHg 9%
    17:00 +43°C° 0 mm 2 mps 714 mmHg 9%
    18:00 +43°C° 0 mm 3 mps 714 mmHg 9%
    19:00 +42°C° 0 mm 5 mps 714 mmHg 12%
    20:00 +40°C° 0 mm 7 mps 715 mmHg 15%
    21:00 +38°C° 0 mm 9 mps 716 mmHg 18%
    22:00 +37°C° 0 mm 9 mps 716 mmHg 21%
    23:00 +34°C° 0 mm 8 mps 716 mmHg 23%

    19 February, Tuesday

    Time Temperature Precipitation Wind Pressure Humidity
    00:00 +32°C° 0 mm 8 mps 716 mmHg 26%
    01:00 +31°C° 0 mm 8 mps 716 mmHg 28%
    02:00 +29°C° 0 mm 7 mps 716 mmHg 30%
    03:00 +28°C° 0 mm 7 mps 715 mmHg 32%
    04:00 +28°C° 0 mm 6 mps 716 mmHg 34%
    05:00 +27°C° 0 mm 6 mps 716 mmHg 36%
    06:00 +26°C° 0 mm 6 mps 716 mmHg 37%
    07:00 +27°C° 0 mm 7 mps 717 mmHg 36%
    08:00 +28°C° 0 mm 7 mps 718 mmHg 34%
    09:00 +31°C° 0 mm 8 mps 718 mmHg 32%
    10:00 +33°C° 0 mm 7 mps 718 mmHg 28%
    11:00 +35°C° 0 mm 6 mps 717 mmHg 24%
    12:00 +39°C° 0 mm 6 mps 717 mmHg 20%
    13:00 +39°C° 0 mm 5 mps 716 mmHg 18%
    14:00 +40°C° 0 mm 4 mps 716 mmHg 16%
    15:00 +40°C° 0 mm 3 mps 715 mmHg 15%
    16:00 +41°C° 0 mm 2 mps 715 mmHg 14%
    17:00 +41°C° 0 mm 2 mps 715 mmHg 14%
    18:00 +41°C° 0 mm 2 mps 715 mmHg 14%
    19:00 +39°C° 0 mm 3 mps 716 mmHg 15%
    20:00 +38°C° 0 mm 4 mps 716 mmHg 17%
    21:00 +36°C° 0 mm 5 mps 717 mmHg 18%
    22:00 +35°C° 0 mm 6 mps 717 mmHg 19%
    23:00 +34°C° 0 mm 7 mps 717 mmHg 19%

    20 February, Wednesday

    Time Temperature Precipitation Wind Pressure Humidity
    00:00 +32°C° 0 mm 8 mps 717 mmHg 20%
    01:00 +30°C° 0 mm 7 mps 716 mmHg 20%
    02:00 +29°C° 0 mm 7 mps 716 mmHg 20%
    03:00 +28°C° 0 mm 6 mps 716 mmHg 19%
    04:00 +27°C° 0 mm 6 mps 716 mmHg 19%
    05:00 +26°C° 0 mm 6 mps 717 mmHg 19%
    06:00 +26°C° 0 mm 5 mps 717 mmHg 19%
    07:00 +27°C° 0 mm 6 mps 717 mmHg 18%
    08:00 +29°C° 0 mm 6 mps 718 mmHg 16%
    09:00 +32°C° 0 mm 7 mps 719 mmHg 14%
    10:00 +34°C° 0 mm 6 mps 718 mmHg 13%
    11:00 +35°C° 0 mm 5 mps 718 mmHg 12%
    12:00 +37°C° 0 mm 4 mps 717 mmHg 12%
    13:00 +38°C° 0 mm 3 mps 717 mmHg 11%
    14:00 +39°C° 0 mm 3 mps 716 mmHg 10%
    15:00 +40°C° 0 mm 2 mps 716 mmHg 9%
    16:00 +40°C° 0 mm 3 mps 716 mmHg 10%
    17:00 +40°C° 0 mm 3 mps 716 mmHg 10%
    18:00 +41°C° 0 mm 4 mps 716 mmHg 10%
    19:00 +38°C° 0 mm 4 mps 716 mmHg 11%
    20:00 +36°C° 0 mm 5 mps 717 mmHg 12%
    21:00 +34°C° 0 mm 6 mps 717 mmHg 13%
    22:00 +33°C° 0 mm 6 mps 717 mmHg 14%
    23:00 +32°C° 0 mm 7 mps 717 mmHg 15%

    21 February, Thursday

    Time Temperature Precipitation Wind Pressure Humidity
    00:00 +30°C° 0 mm 7 mps 717 mmHg 16%
    01:00 +29°C° 0 mm 7 mps 717 mmHg 17%
    02:00 +28°C° 0 mm 6 mps 716 mmHg 18%
    03:00 +27°C° 0 mm 6 mps 716 mmHg 19%
    04:00 +26°C° 0 mm 6 mps 717 mmHg 19%
    05:00 +26°C° 0 mm 5 mps 717 mmHg 20%
    06:00 +25°C° 0 mm 5 mps 718 mmHg 21%
    07:00 +27°C° 0 mm 6 mps 718 mmHg 19%
    08:00 +29°C° 0 mm 7 mps 719 mmHg 17%
    09:00 +32°C° 0 mm 8 mps 719 mmHg 15%
    10:00 +34°C° 0 mm 7 mps 719 mmHg 14%
    11:00 +35°C° 0 mm 6 mps 719 mmHg 12%
    12:00 +37°C° 0 mm 5 mps 718 mmHg 11%
    13:00 +38°C° 0 mm 4 mps 718 mmHg 11%
    14:00 +40°C° 0 mm 4 mps 717 mmHg 10%
    15:00 +40°C° 0 mm 3 mps 717 mmHg 10%
    16:00 +41°C° 0 mm 4 mps 717 mmHg 10%
    17:00 +40°C° 0 mm 4 mps 717 mmHg 10%
    18:00 +40°C° 0 mm 5 mps 717 mmHg 10%
    19:00 +37°C° 0 mm 5 mps 717 mmHg 11%
    20:00 +35°C° 0 mm 6 mps 718 mmHg 12%
    21:00 +33°C° 0 mm 6 mps 718 mmHg 13%
    22:00 +32°C° 0 mm 6 mps 718 mmHg 14%
    23:00 +30°C° 0 mm 7 mps 718 mmHg 16%
    Show more